Location: Dreilärchen
(47.9312°N, 8.6113°E)
Time: 21:49:24
(UTC+00:00)

Cosmos 1371 Rocket - Pass Details

Date: 26 May 2022
Orbit: 753 x 790 km, 74.0° (Epoch: 03 July)

Event Time Altitude Azimuth Distance (km) Brightness Sun altitude
Exits shadow 02:49:00 - 190° (S) 3,032 6.6 -6.9°
Reaches altitude 10° 02:50:57 10° 188° (S) 2,271 6.0 -6.7°
Maximum altitude 02:56:01 63° 108° (ESE) 843 4.4 -6.1°
Drops below altitude 10° 03:01:08 10° 28° (NNE) 2,292 7.8 -5.4°
Sets 03:03:32 0° 26° (NNE) 3,225 8.6 -5.1°
